[[{"header":{"parameterUnit":"m.s-1","parameterCategory":1,"la1":30.2991,"la2":30.254,"lo1":-89.0895,"lo2":-89.0444,"dy":0.0017,"dx":0.0017,"nx":28,"ny":28,"refTime":"2023-08-10T03:00:00:Z","depth":0,"parameterNumber":2,"parameterNumberName":"U-component_of_WINDS"},"data":[0,0,0,0,0,0,0,0,0,0,0,0,0,0,0,0,0,0,0,0,0,0,0,0,0,0,0,0,0,0,0,0,0,0,0,0,0,0,0,0,0,0,0,0,0,0,0,0,0,0,0,0,0,0,0,0,0,0,6.2078,6.208,0,6.2265,6.2267,6.2269,6.223,6.2227,6.2223,6.222,6.241,6.2419,6.2427,0,0,0,0,0,0,0,0,0,0,0,0,0,6.1682,6.1689,6.2078,6.208,6.2083,6.2265,6.2267,6.227,6.2231,6.2227,6.2222,6.2218,6.2408,6.2418,6.2427,0,0,0,0,0,0,0,0,0,0,0,0,0,6.186,6.1692,6.2077,6.2085,6.2087,6.2264,6.2267,6.2271,6.2232,6.2226,6.2221,6.2216,6.2404,6.2417,6.2429,6.2609,0,0,6.2467,6.2472,0,0,0,0,0,0,0,0,6.185,6.1874,6.2081,6.2085,6.2088,6.2219,6.2198,6.2384,6.2233,6.2177,6.222,6.2214,6.2351,6.2367,6.2414,6.2618,6.2627,6.2468,6.2476,6.2481,6.2484,0,0,0,0,0,0,0,6.1837,6.1866,6.2152,6.2084,6.2088,6.2077,6.2097,6.2233,6.2291,6.2181,6.2179,6.2202,6.2352,6.2402,6.2418,6.2629,6.2468,6.2479,6.2486,6.2491,6.2985,6.2991,0,0,0,0,0,0,6.1823,6.1856,6.2146,6.2157,6.1954,6.2089,6.2111,6.2182,6.2289,6.23,6.2206,6.2199,6.2383,6.2404,6.2425,6.2639,6.2481,6.2492,6.25,6.298,6.2987,6.2993,0,0,0,0,0,0,6.1814,6.1849,6.2138,6.2006,6.2042,6.2101,6.2182,6.2189,6.2239,6.2308,6.2317,6.2247,6.238,6.2407,6.2563,6.2645,6.2498,6.2509,6.2973,6.2982,6.299,6.3072,0,0,0,0,0,0,6.1803,6.1846,6.1917,6.2008,6.2049,6.2275,6.2187,6.2196,6.2261,6.2254,6.2349,6.236,6.2378,6.2544,6.2575,6.266,6.2519,6.2966,6.2977,6.2987,6.3062,6.3082,6.3099,0,0,0,0,0,6.1789,6.1933,6.1921,6.1956,6.2139,6.228,6.2303,6.2322,6.2268,6.2338,6.2381,6.2357,6.2632,6.256,6.2595,6.2684,6.2961,6.2974,6.2986,6.3053,6.3078,6.3099,0,0,0,0,0,0,6.1851,6.1946,6.1933,6.2111,6.2187,6.2273,6.2362,6.2348,6.2442,6.2431,6.245,6.2471,6.2628,6.2672,6.2592,6.2862,6.2788,6.2808,6.2827,6.2851,6.287,6.2854,6.2529,0,0,0,0,0,6.1885,6.1993,6.2069,6.2219,6.2258,6.2304,6.2366,6.2373,6.2453,6.2485,6.254,6.2618,6.2721,6.2789,6.2888,6.3068,6.3086,6.3146,6.3165,6.318,6.3196,6.329,6.3316,6.3035,6.3034,6.3034,0,0,6.1957,6.2022,6.2089,6.2233,6.2293,6.2401,6.2331,6.2451,6.253,6.2503,6.2652,6.2695,6.2783,6.295,6.3026,6.2991,6.3278,6.3196,6.3208,6.3216,6.3305,6.3332,6.3356,6.3043,6.3042,6.304,0,0,6.2143,6.2205,6.2334,6.2395,6.2487,6.2515,6.2546,6.2634,6.266,6.2811,6.2791,6.2886,6.3065,6.3126,6.3181,6.3386,6.3365,6.3418,6.3515,6.3605,6.3627,6.3647,6.3716,6.3741,6.3435,6.3435,6.3435,0,6.2221,6.2385,6.2402,6.2522,6.2584,6.2564,6.2692,6.2751,6.287,6.2913,6.2872,6.3093,6.3151,6.3329,6.3379,6.3426,6.3458,6.3407,6.3623,6.3643,6.3662,6.3727,6.3754,6.3441,6.344,6.3439,6.3439,0,6.2474,6.2587,6.268,6.2794,6.2867,6.2991,6.3025,6.3096,6.3097,6.3129,6.3279,6.3348,6.3458,6.3501,6.3504,6.368,6.3654,6.3619,6.3544,6.3694,6.3755,6.3781,6.3448,6.3446,6.3445,6.3443,0,0,6.2705,6.2824,6.2858,6.2907,6.3005,6.3092,6.3214,6.3321,6.338,6.3463,6.3562,6.3712,6.3678,6.374,6.3749,6.3829,6.3981,6.3783,6.3785,6.3814,6.4173,6.4197,6.4227,6.3969,6.3974,6.3978,6.4165,0,6.2897,6.3111,6.3128,6.332,6.3422,6.3403,6.3508,6.3578,6.3611,6.3701,6.3737,6.3841,6.3791,6.3827,6.3906,6.3946,6.4053,6.3933,6.4059,6.4063,6.4034,6.426,6.4287,6.446,6.4189,6.4194,6.4197,0,6.315,6.3237,6.3439,6.3518,6.3561,6.3656,6.3753,6.3841,6.3918,6.3936,6.4004,6.4,6.4122,6.4045,6.421,6.4128,6.418,6.4208,6.4215,6.4225,6.4137,6.4272,6.4516,6.454,6.4236,6.4233,6.423,0,6.3292,6.3461,6.3602,6.3646,6.3743,6.3809,6.3852,6.3924,6.3986,6.4071,6.4111,6.421,6.4263,6.4338,6.436,6.4302,6.4523,6.4449,6.4538,6.4538,6.4584,6.458,6.4836,6.4624,6.4623,6.4623,6.4622,0,6.3503,6.3626,6.3667,6.3754,6.389,6.3907,6.4041,6.408,6.4144,6.4236,6.4226,6.4312,6.4338,6.4428,6.4446,6.4578,6.4603,6.4619,6.4621,6.4618,6.4615,6.465,6.4637,6.463,6.4628,6.4627,6.4626,0,6.3685,6.3718,6.387,6.3948,6.397,6.4067,6.4133,6.4214,6.4244,6.436,6.4389,6.4436,6.4541,6.457,6.4697,6.4709,6.4862,6.4856,6.4836,6.4835,6.4921,6.4911,6.5206,6.5243,6.501,6.5012,6.5014,0,6.3815,6.3909,6.3997,6.4057,6.4103,6.4201,6.4263,6.4284,6.4349,6.4441,6.4511,6.4615,6.4698,6.4866,6.4911,6.5006,6.5,6.5096,6.5014,6.5006,6.4996,6.4989,6.4996,6.5111,6.5113,6.5115,6.5117,0,6.4042,6.4053,6.4144,6.4239,6.4313,6.439,6.4463,6.4513,6.4543,6.4616,6.4722,6.4787,6.4915,6.5016,6.5112,6.5155,6.514,6.5143,6.5168,6.5163,6.5146,6.5152,6.4874,6.5135,6.5134,6.5132,6.5131,6.5131,6.42,6.428,6.4353,6.4453,6.451,6.4577,6.4656,6.4695,6.4785,6.489,6.4896,6.501,6.5081,6.5209,6.5256,6.5344,6.5316,6.5353,6.5362,6.537,6.5375,6.5134,6.5363,6.5362,6.5362,6.5361,6.5361,0,6.4422,6.4467,6.4559,6.466,6.4738,6.4718,6.4797,6.4862,6.4963,6.5031,6.5112,6.5233,6.533,6.5381,6.5477,6.5537,6.5533,6.5562,6.5556,6.5565,6.5397,6.5364,6.5563,6.5563,6.5563,6.5563,6.5563,6.5563,6.4547,6.468,6.4699,6.4859,6.4903,6.5015,6.5061,6.5122,6.5175,6.531,6.539,6.5423,6.5483,6.5582,6.5669,6.5682,6.5716,6.5748,6.5756,6.5598,6.5577,6.5557,6.5526,6.5756,6.5756,6.5915,6.5917,6.5918]},{"header":{"parameterUnit":"m.s-1","parameterCategory":1,"la1":30.2991,"la2":30.254,"lo1":-89.0895,"lo2":-89.0444,"dy":0.0017,"dx":0.0017,"nx":28,"ny":28,"refTime":"2023-08-10T03:00:00:Z","depth":0,"parameterNumber":3,"parameterNumberName":"V-component_of_WINDS"},"data":[0,0,0,0,0,0,0,0,0,0,0,0,0,0,0,0,0,0,0,0,0,0,0,0,0,0,0,0,0,0,0,0,0,0,0,0,0,0,0,0,0,0,0,0,0,0,0,0,0,0,0,0,0,0,0,0,0,0,3.5284,3.5285,0,3.5408,3.5409,3.5411,3.539,3.5388,3.5386,3.5384,3.551,3.5515,3.5521,0,0,0,0,0,0,0,0,0,0,0,0,0,3.5025,3.503,3.5283,3.5285,3.5287,3.5408,3.5409,3.5411,3.5391,3.5388,3.5385,3.5383,3.5508,3.5515,3.5521,0,0,0,0,0,0,0,0,0,0,0,0,0,3.5142,3.5032,3.5283,3.5291,3.5293,3.5407,3.5409,3.5412,3.5391,3.5388,3.5385,3.5382,3.5506,3.5514,3.5522,3.5636,0,0,3.5546,3.555,0,0,0,0,0,0,0,0,3.5136,3.5152,3.5288,3.5291,3.5293,3.538,3.5365,3.5487,3.5392,3.5354,3.5384,3.538,3.5469,3.548,3.5511,3.5642,3.5647,3.5547,3.5552,3.5556,3.5558,0,0,0,0,0,0,0,3.5128,3.5146,3.5333,3.529,3.5293,3.5287,3.53,3.5388,3.5428,3.5357,3.5356,3.5371,3.547,3.5503,3.5513,3.5649,3.5547,3.5554,3.5559,3.5562,3.5878,3.5881,0,0,0,0,0,0,3.5118,3.514,3.5329,3.5336,3.5205,3.5295,3.5309,3.5355,3.5427,3.5435,3.5373,3.5369,3.5491,3.5504,3.5518,3.5655,3.5555,3.5563,3.5568,3.5874,3.5879,3.5882,0,0,0,0,0,0,3.5112,3.5135,3.5324,3.5238,3.5261,3.5302,3.5355,3.536,3.5393,3.544,3.5446,3.54,3.5489,3.5506,3.5606,3.5659,3.5567,3.5574,3.587,3.5876,3.588,3.593,0,0,0,0,0,0,3.5105,3.5133,3.5178,3.5239,3.5266,3.5411,3.5358,3.5364,3.5407,3.5402,3.5466,3.5474,3.5488,3.5594,3.5614,3.5668,3.558,3.5865,3.5872,3.5879,3.5924,3.5937,3.5948,0,0,0,0,0,3.5096,3.5187,3.518,3.5203,3.5323,3.5414,3.543,3.5444,3.5411,3.5456,3.5485,3.5472,3.565,3.5605,3.5627,3.5684,3.5862,3.587,3.5878,3.5919,3.5934,3.5947,0,0,0,0,0,0,3.5131,3.5195,3.5188,3.5302,3.5353,3.5411,3.5468,3.546,3.5522,3.5515,3.553,3.5545,3.5646,3.5675,3.5624,3.5797,3.5751,3.5764,3.5775,3.5789,3.5801,3.5792,3.5587,0,0,0,0,0,3.5152,3.5221,3.5274,3.5369,3.5395,3.5427,3.5467,3.5474,3.5527,3.5548,3.5585,3.5637,3.5704,3.5748,3.5813,3.5928,3.5941,3.5978,3.599,3.5999,3.601,3.6071,3.6088,3.5909,3.5909,3.5908,0,0,3.5196,3.524,3.5283,3.5377,3.5417,3.5488,3.5445,3.5522,3.5574,3.556,3.5656,3.5685,3.5743,3.5851,3.59,3.5878,3.6062,3.6009,3.6016,3.6022,3.6081,3.6098,3.6113,3.5914,3.5913,3.5912,0,0,3.5312,3.5353,3.5436,3.5477,3.5538,3.5558,3.5578,3.5637,3.5655,3.5752,3.5742,3.5804,3.592,3.5961,3.5998,3.6127,3.6116,3.6147,3.6208,3.6268,3.6282,3.6294,3.6339,3.6355,3.6158,3.6158,3.6158,0,3.536,3.5467,3.548,3.5558,3.5598,3.5588,3.5671,3.571,3.5789,3.5817,3.5791,3.5936,3.5974,3.609,3.6121,3.6152,3.6174,3.6141,3.6279,3.6291,3.6303,3.6346,3.6363,3.6162,3.6161,3.6161,3.6161,0,3.5521,3.5595,3.5654,3.573,3.5778,3.5858,3.5882,3.5929,3.593,3.5953,3.605,3.6096,3.6169,3.6197,3.62,3.6313,3.6297,3.6275,3.6229,3.6323,3.6364,3.6381,3.6166,3.6165,3.6164,3.6163,0,0,3.5664,3.5745,3.5767,3.58,3.5866,3.5923,3.6001,3.6073,3.6111,3.6165,3.6231,3.6328,3.6308,3.6349,3.6356,3.6408,3.6505,3.6379,3.638,3.64,3.6631,3.6647,3.6666,3.6498,3.6501,3.6504,3.6626,0,3.5786,3.5926,3.5939,3.6064,3.6131,3.6121,3.6189,3.6236,3.6259,3.6318,3.6343,3.6411,3.6379,3.6404,3.6455,3.6483,3.6552,3.6474,3.6558,3.6561,3.6544,3.6687,3.6705,3.6818,3.6642,3.6645,3.6646,0,3.5948,3.6006,3.6137,3.6191,3.622,3.6282,3.6347,3.6404,3.6456,3.6469,3.6513,3.6513,3.6592,3.6543,3.6652,3.6598,3.6633,3.6652,3.6657,3.6665,3.661,3.6699,3.6855,3.6871,3.6672,3.667,3.6668,0,3.6038,3.6149,3.6242,3.6271,3.6337,3.638,3.6409,3.6458,3.6499,3.6555,3.6582,3.6647,3.6683,3.6732,3.6749,3.6711,3.6856,3.6809,3.6868,3.6868,3.6899,3.6897,3.7062,3.6922,3.6922,3.6922,3.6921,0,3.6173,3.6253,3.6283,3.634,3.6429,3.6443,3.653,3.6557,3.66,3.6661,3.6656,3.6713,3.6731,3.6791,3.6804,3.6891,3.6908,3.6919,3.6922,3.692,3.6918,3.6943,3.6935,3.6926,3.6925,3.6924,3.6924,0,3.6289,3.6312,3.6412,3.6466,3.6481,3.6544,3.6589,3.6643,3.6664,3.6741,3.676,3.6792,3.6862,3.6883,3.6968,3.6976,3.7078,3.7074,3.7061,3.7061,3.7119,3.7113,3.7305,3.7331,3.7175,3.7176,3.7177,0,3.6373,3.6435,3.6494,3.6535,3.6566,3.6631,3.6673,3.6688,3.6731,3.6794,3.684,3.6909,3.6965,3.7077,3.7108,3.7172,3.7168,3.7231,3.7178,3.7173,3.7168,3.7164,3.717,3.7241,3.7243,3.7244,3.7245,0,3.652,3.6528,3.6589,3.6653,3.6703,3.6754,3.6803,3.6837,3.6858,3.6907,3.6978,3.7022,3.7107,3.7175,3.724,3.7269,3.7261,3.7262,3.7279,3.7277,3.7267,3.7272,3.7088,3.7257,3.7256,3.7255,3.7255,3.7254,3.6623,3.6676,3.6726,3.6793,3.6831,3.6877,3.693,3.6957,3.7017,3.7088,3.7092,3.7169,3.7217,3.7303,3.7335,3.7395,3.7376,3.7401,3.7407,3.7413,3.7417,3.7257,3.7406,3.7406,3.7406,3.7406,3.7405,0,3.6768,3.6799,3.6861,3.693,3.6982,3.6969,3.7023,3.7067,3.7135,3.7181,3.7236,3.7317,3.7382,3.7417,3.7482,3.7523,3.7521,3.7539,3.7536,3.7543,3.7431,3.7409,3.754,3.754,3.754,3.754,3.754,3.754,3.685,3.694,3.6953,3.7061,3.7091,3.7166,3.7198,3.7239,3.7276,3.7366,3.7421,3.7443,3.7484,3.7552,3.7611,3.7619,3.7643,3.7664,3.767,3.7565,3.7551,3.7538,3.7518,3.7669,3.7669,3.7777,3.7778,3.7779]}]]